Wind_Speed
3 3 5 9 12 15 17 19 20 20 19 19 17 15 13 14 17 18 17 17 19 21 21 18 27 32 33 33 29 29 24 24 24 27 24 26 26 22 22 20 18 16 14
3 4 8 12 14 15 16 18 19 18 17 17 15 15 15 14 14 15 17 15 18 21 21 23 19 19 31 32 32 32 33 32 29 30 29 17 18 23 22 20 20 18 17
8 10 13 14 14 16 18 20 20 18 17 17 16 14 14 15 15 14 15 19 18 19 22 19 24 22 26 36 38 39 37 39 38 37 23 17 10 22 22 24 23 21 20
13 17 16 16 16 18 20 18 18 19 19 17 17 16 16 15 15 15 14 15 20 19 21 23 21 24 28 34 38 39 39 38 43 44 42 31 22 20 14 22 24 24 23
17 18 19 18 18 18 19 20 20 19 19 19 18 19 18 18 15 12 16 15 18 20 21 23 21 24 26 31 29 39 42 38 43 46 46 35 37 29 23 18 24 26 25
21 18 17 17 17 18 18 20 22 23 22 21 20 19 17 16 15 12 15 18 17 20 22 22 23 23 26 37 32 40 41 46 46 47 47 45 39 37 34 24 18 25 25
21 22 21 19 16 16 18 22 25 27 25 24 23 21 20 18 17 15 13 17 19 21 21 20 22 25 26 30 26 40 44 44 43 46 44 42 39 33 29 24 25 22 24
20 21 20 18 13 15 20 25 28 30 29 26 25 21 18 19 19 17 16 14 17 18 19 19 22 21 24 26 25 34 43 42 41 40 40 41 37 35 24 26 25 16 16
23 23 20 17 16 19 23 26 28 29 28 24 22 20 19 18 18 17 15 15 17 18 21 20 20 20 23 24 26 28 41 44 44 44 41 44 44 41 30 26 18 16 13
20 20 19 18 19 22 24 24 26 27 26 22 20 18 17 18 17 16 16 14 15 18 19 20 20 21 20 22 24 27 36 40 43 45 40 41 42 36 31 28 25 20 18
19 18 20 20 21 22 26 27 27 28 28 24 20 18 15 13 17 15 13 13 16 18 20 17 18 19 20 20 19 29 29 36 40 40 37 34 32 33 29 25 20 20 20
18 19 20 20 22 24 30 30 30 30 28 26 22 18 15 12 8 10 12 13 17 19 20 20 22 20 18 19 18 25 30 34 39 38 34 36 36 33 27 26 24 25 22
19 20 21 24 25 27 31 33 33 34 33 27 24 18 15 11 12 13 15 14 16 18 19 20 19 20 18 19 18 23 22 28 28 31 33 30 26 26 21 20 22 21 19
19 20 21 22 26 29 35 33 36 35 35 33 25 19 14 12 12 13 13 15 18 18 16 19 20 18 18 19 19 19 23 25 27 30 33 27 25 22 24 23 19 16 17
20 21 23 24 26 32 38 34 35 37 35 36 24 19 14 13 11 12 13 11 14 16 19 21 17 20 18 22 20 20 24 28 29 28 29 30 25 24 22 16 14 17 18
22 26 26 27 29 32 35 39 35 34 36 37 24 17 11 11 12 11 14 13 13 17 18 15 19 17 19 18 18 23 24 28 28 25 26 23 21 20 16 18 17 16 12
27 28 27 28 30 33 32 33 35 32 34 35 26 17 11 9 11 10 12 14 13 13 17 18 15 18 17 19 21 24 28 29 26 27 24 24 23 21 20 18 13 8 9
29 27 29 31 31 31 29 30 32 30 32 33 28 17 12 8 7 10 8 8 9 9 10 13 14 16 17 18 17 22 27 30 26 25 26 25 24 21 18 16 12 12 9
28 29 29 32 30 27 27 29 30 30 29 33 30 18 12 7 5 6 6 6 6 7 9 9 12 16 18 17 19 21 27 24 29 27 27 25 22 18 14 12 11 8 9
29 31 33 30 26 26 26 27 28 28 27 31 31 20 10 7 6 2 3 7 9 10 11 15 16 20 23 24 17 22 22 27 26 24 21 21 18 17 14 12 9 10 8
32 29 27 28 27 28 25 25 25 26 24 27 29 17 9 6 9 7 11 12 13 15 18 20 20 18 19 21 21 21 25 29 29 28 25 22 19 17 11 11 9 7 6
32 27 27 28 29 25 22 23 23 25 22 24 26 14 7 6 11 12 13 12 13 17 19 20 19 18 22 23 21 22 23 27 25 25 23 21 16 13 11 10 9 7 6
31 29 28 30 27 23 21 22 21 23 20 21 23 13 6 8 12 14 15 16 16 19 22 21 22 25 25 22 21 25 26 21 21 22 18 16 14 13 11 10 8 6 5
31 29 28 28 29 23 21 19 19 20 17 18 20 12 7 9 14 17 17 18 20 22 23 24 27 26 24 26 25 25 26 23 21 19 17 16 14 12 11 10 8 7 5
29 28 28 27 27 25 23 18 16 16 15 16 17 12 8 10 15 19 20 19 21 22 24 25 28 31 30 29 31 30 25 23 20 20 17 15 13 12 10 9 7 5 3
31 31 28 28 27 24 22 17 14 14 13 14 16 11 8 11 15 19 20 19 19 21 22 24 26 28 30 31 29 23 20 18 16 15 14 14 13 11 9 7 6 4 2
Wind_Direction
185 245 299 312 319 321 323 328 329 326 318 310 304 298 290 277 264 254 251 252 233 237 244 251 242 228 219 215 211 199 206 211 214 213 211 200 209 207 212 218 216 205 218
61 337 333 330 329 332 333 333 332 334 334 324 314 302 297 289 276 261 249 246 243 237 238 243 244 237 230 211 206 215 196 206 220 219 212 196 196 196 208 210 210 210 212
34 4 353 345 338 331 331 334 338 336 332 326 319 307 293 288 287 274 257 248 253 232 233 240 236 248 237 221 211 207 212 201 197 208 207 202 199 191 194 204 206 210 215
30 8 353 344 333 331 331 333 337 341 336 328 319 312 300 291 291 275 259 250 246 237 234 234 237 235 234 219 221 218 216 216 201 202 211 206 211 184 200 209 203 212 214
352 342 344 335 329 324 325 326 328 332 328 326 317 309 301 294 293 283 254 253 244 231 229 229 235 236 237 244 224 220 212 212 210 205 206 211 214 215 212 201 209 221 226
348 340 332 331 322 317 319 320 322 325 324 321 317 306 292 285 284 286 270 257 249 228 231 232 228 236 232 234 232 221 223 212 214 217 211 210 213 201 199 197 209 224 229
353 348 344 339 332 324 325 326 327 325 323 320 316 305 286 277 274 276 275 257 246 241 233 230 230 228 230 235 240 231 227 220 213 216 222 221 211 211 205 217 220 213 226
358 356 354 355 351 340 334 331 330 327 325 319 314 307 291 272 273 273 261 258 245 239 238 240 238 232 233 240 236 237 235 221 229 223 218 223 220 216 220 210 201 190 213
2 0 1 0 351 343 340 336 333 332 329 323 317 311 298 277 265 272 264 253 248 239 236 244 239 231 231 234 240 233 233 228 230 221 226 223 228 236 216 237 226 228 218
357 357 357 354 350 347 344 342 341 339 336 330 325 318 315 290 254 259 263 254 249 236 237 238 236 236 235 234 234 238 233 231 227 232 224 223 225 226 234 232 235 233 240
353 350 349 349 353 354 353 348 345 343 340 333 321 313 309 309 246 248 257 253 248 245 232 230 234 243 236 230 239 233 240 227 232 227 224 217 222 232 233 230 224 232 236
360 359 356 350 351 352 355 349 348 346 338 331 322 313 304 297 277 256 259 248 247 235 231 236 240 241 234 225 234 236 233 237 235 225 231 230 235 227 233 224 234 227 239
355 358 0 359 351 348 356 351 347 347 343 328 323 315 296 285 285 276 259 250 251 241 236 238 237 227 235 232 232 234 239 242 239 223 218 211 218 227 224 228 233 232 226
344 347 344 345 350 350 347 347 348 346 343 337 322 311 291 273 281 279 268 251 257 237 241 240 231 229 229 230 229 231 236 229 215 220 214 222 215 219 221 218 222 213 217
341 342 340 337 337 342 343 340 342 344 341 338 323 311 287 267 267 271 274 264 255 249 243 242 230 229 232 228 228 230 229 223 215 208 210 209 211 210 208 198 192 198 197
336 332 330 329 330 334 334 335 338 338 340 342 331 317 284 255 261 261 255 264 265 249 237 234 229 225 237 230 231 233 229 216 211 200 195 193 187 172 166 177 190 192 203
328 326 325 326 324 328 332 329 334 335 338 341 334 323 306 276 266 251 265 271 254 251 233 229 228 225 235 230 231 223 216 200 195 191 182 184 167 164 174 180 192 213 208
322 319 320 321 320 319 328 325 329 332 336 339 335 322 313 302 279 255 273 255 236 239 226 217 216 219 218 223 221 209 194 176 175 178 179 177 162 173 183 202 186 189 180
308 310 311 313 313 315 320 322 326 330 333 337 335 318 303 297 266 288 259 216 198 200 205 208 202 191 179 176 174 177 176 184 173 168 160 166 174 176 147 167 161 183 202
307 308 309 310 307 312 318 318 323 326 328 332 332 315 290 278 233 212 169 171 156 150 156 160 167 173 170 170 182 185 186 163 152 150 152 148 137 144 151 178 193 189 172
309 310 307 304 304 309 313 315 319 324 322 326 329 313 272 251 219 178 158 151 167 167 159 155 158 163 172 169 174 178 167 161 153 152 140 143 156 173 170 177 175 168 163
311 310 306 302 305 308 310 311 314 319 319 320 327 315 272 236 208 192 181 179 178 177 168 167 160 160 158 157 160 163 160 158 160 152 157 164 161 166 170 168 164 163 160
306 307 304 302 303 305 303 305 310 315 315 314 324 312 265 225 204 202 198 187 180 175 167 166 157 153 152 153 156 160 164 163 151 150 153 158 159 163 165 162 158 155 148
304 305 304 300 300 303 302 298 307 311 309 309 318 307 264 230 219 210 203 194 186 181 174 170 164 162 162 159 163 157 143 146 151 159 159 161 162 161 157 157 154 152 155
304 303 300 298 298 300 298 297 303 308 303 302 308 300 256 225 214 203 201 199 195 192 182 175 168 163 161 161 154 148 153 161 168 165 162 161 159 155 154 154 156 158 163
304 301 297 295 296 297 295 293 298 303 296 294 297 290 251 225 215 207 199 203 203 195 186 176 172 167 162 159 152 159 162 162 164 163 161 160 159 160 161 163 164 170 177
Height
1522 1522 1521 1519 1518 1516 1513 1510 1506 1504 1501 1498 1496 1495 1494 1493 1493 1493 1493 1493 1495 1496 1498 1499 1500 1501 1504 1509 1512 1514 1518 1526 1537 1541 1541 1544 1548 1549 1550 1553 1554 1555 1558
1523 1523 1522 1520 1517 1514 1511 1508 1505 1501 1498 1495 1493 1491 1490 1489 1488 1489 1489 1490 1490 1492 1494 1496 1498 1500 1502 1505 1507 1512 1510 1518 1525 1537 1539 1540 1544 1546 1549 1551 1553 1553 1555
1525 1524 1521 1518 1516 1513 1510 1506 1502 1499 1496 1493 1490 1489 1487 1485 1485 1485 1485 1486 1487 1489 1491 1492 1495 1496 1498 1499 1502 1506 1508 1511 1519 1524 1530 1537 1537 1540 1545 1548 1550 1551 1552
1525 1523 1520 1517 1514 1511 1508 1504 1501 1497 1493 1490 1488 1486 1484 1482 1481 1481 1481 1481 1482 1484 1486 1489 1491 1493 1494 1497 1501 1504 1506 1509 1513 1518 1523 1526 1528 1533 1542 1545 1545 1548 1549
1525 1522 1519 1515 1512 1509 1506 1502 1499 1495 1492 1488 1485 1482 1480 1479 1478 1477 1476 1477 1477 1479 1482 1485 1487 1489 1490 1494 1499 1500 1502 1505 1508 1512 1514 1520 1523 1528 1531 1537 1542 1545 1545
1522 1519 1516 1512 1509 1506 1503 1500 1496 1492 1489 1485 1482 1479 1477 1476 1474 1474 1472 1472 1473 1474 1476 1479 1482 1485 1487 1488 1492 1494 1498 1499 1503 1508 1511 1513 1516 1519 1522 1526 1535 1539 1540
1519 1515 1512 1508 1505 1503 1501 1497 1493 1488 1484 1480 1477 1474 1472 1471 1470 1469 1469 1468 1468 1469 1471 1473 1476 1478 1482 1485 1487 1490 1493 1494 1499 1501 1506 1511 1515 1518 1520 1523 1529 1533 1534
1518 1515 1510 1506 1504 1501 1498 1495 1490 1484 1479 1474 1471 1468 1466 1465 1465 1464 1464 1464 1464 1465 1467 1468 1470 1473 1477 1479 1483 1485 1486 1491 1494 1498 1503 1509 1511 1515 1518 1519 1523 1527 1530
1516 1512 1509 1507 1504 1500 1496 1492 1487 1481 1475 1469 1465 1462 1460 1460 1460 1460 1460 1459 1460 1461 1463 1464 1466 1469 1472 1474 1476 1479 1481 1485 1489 1493 1498 1504 1507 1512 1515 1518 1520 1523 1525
1517 1514 1511 1508 1504 1498 1494 1490 1485 1478 1472 1466 1462 1458 1455 1453 1454 1455 1455 1454 1455 1457 1459 1461 1463 1465 1468 1470 1472 1474 1477 1480 1483 1488 1492 1497 1502 1505 1509 1513 1517 1520 1522
1519 1514 1511 1507 1502 1497 1492 1487 1482 1476 1469 1464 1460 1455 1452 1449 1449 1450 1451 1451 1452 1453 1455 1457 1459 1461 1463 1466 1467 1469 1472 1475 1478 1483 1488 1492 1498 1501 1505 1509 1513 1515 1517
1519 1514 1510 1506 1501 1496 1491 1485 1480 1473 1468 1462 1457 1452 1449 1447 1446 1446 1447 1448 1448 1450 1451 1453 1455 1457 1459 1461 1464 1465 1468 1471 1475 1479 1483 1488 1493 1497 1501 1505 1508 1512 1513
1518 1513 1507 1503 1499 1494 1489 1484 1478 1471 1465 1459 1453 1449 1446 1445 1444 1443 1443 1444 1445 1446 1448 1449 1451 1452 1455 1456 1459 1462 1466 1467 1470 1475 1479 1484 1488 1494 1497 1502 1506 1508 1509
1516 1512 1507 1503 1498 1493 1488 1482 1476 1469 1462 1456 1450 1445 1442 1441 1440 1440 1439 1439 1440 1441 1443 1445 1447 1449 1451 1453 1456 1459 1462 1463 1468 1472 1476 1481 1486 1492 1495 1500 1503 1505 1510
1513 1509 1505 1501 1496 1490 1484 1479 1473 1467 1460 1452 1445 1441 1438 1438 1437 1437 1436 1436 1436 1437 1438 1440 1441 1444 1447 1449 1452 1455 1457 1462 1465 1469 1473 1477 1483 1489 1493 1496 1501 1505 1509
1511 1507 1501 1497 1492 1486 1481 1476 1470 1464 1457 1449 1442 1437 1434 1434 1434 1433 1433 1431 1431 1432 1432 1434 1437 1440 1442 1445 1448 1451 1454 1457 1462 1466 1471 1476 1482 1486 1492 1497 1502 1506 1506
1508 1503 1499 1493 1489 1483 1478 1472 1466 1460 1455 1447 1440 1435 1431 1430 1430 1430 1429 1427 1427 1427 1428 1431 1433 1436 1439 1441 1444 1448 1451 1454 1459 1465 1469 1474 1479 1487 1491 1496 1499 1501 1503
1504 1499 1494 1489 1484 1479 1474 1469 1464 1458 1452 1445 1439 1433 1430 1428 1427 1426 1425 1424 1424 1425 1425 1427 1430 1433 1435 1438 1441 1445 1450 1455 1459 1465 1469 1474 1480 1486 1490 1494 1498 1501 1502
1501 1495 1490 1484 1479 1474 1469 1464 1459 1454 1449 1443 1437 1432 1428 1426 1426 1425 1424 1423 1423 1423 1424 1426 1429 1431 1434 1439 1443 1447 1451 1455 1460 1465 1470 1477 1482 1487 1491 1496 1498 1499 1501
1496 1489 1482 1478 1474 1469 1464 1460 1455 1450 1445 1440 1434 1429 1426 1425 1425 1425 1423 1423 1423 1425 1425 1427 1430 1434 1437 1441 1445 1450 1453 1458 1463 1470 1474 1479 1484 1488 1492 1495 1498 1499 1500
1487 1482 1477 1472 1467 1463 1459 1454 1450 1446 1442 1437 1431 1427 1424 1423 1424 1425 1425 1425 1426 1427 1428 1430 1434 1437 1441 1444 1448 1452 1456 1460 1465 1470 1476 1481 1486 1490 1492 1495 1497 1499 1500
1478 1475 1469 1464 1460 1457 1454 1449 1446 1442 1438 1434 1429 1425 1422 1421 1423 1425 1426 1427 1428 1430 1431 1433 1437 1441 1444 1448 1453 1457 1461 1465 1468 1473 1478 1482 1487 1490 1493 1495 1497 1499 1500
1472 1468 1463 1456 1453 1451 1448 1444 1441 1438 1435 1431 1427 1423 1421 1421 1423 1424 1426 1427 1429 1432 1433 1436 1439 1443 1448 1452 1457 1460 1464 1468 1472 1477 1482 1485 1488 1491 1494 1496 1497 1499 1500
1465 1460 1456 1450 1444 1443 1441 1439 1436 1434 1431 1428 1425 1422 1421 1421 1422 1424 1426 1427 1429 1432 1434 1437 1440 1445 1450 1454 1459 1463 1467 1472 1476 1479 1483 1486 1489 1492 1494 1496 1497 1499 1500
1459 1454 1449 1444 1439 1437 1434 1433 1431 1429 1427 1425 1423 1420 1420 1420 1420 1422 1424 1427 1430 1432 1434 1438 1442 1445 1450 1456 1461 1465 1469 1473 1477 1480 1484 1487 1490 1492 1494 1496 1497 1498 1499
1451 1447 1442 1438 1433 1430 1427 1426 1426 1425 1423 1422 1420 1418 1418 1418 1419 1422 1424 1428 1431 1434 1438 1442 1445 1449 1454 1458 1464 1469 1473 1476 1480 1483 1485 1488 1490 1493 1494 1496 1497 1498 1498